Flag for Guinea-Bissau Weather past 2 weeks in Bissau, Guinea-Bissau

Now
81 °F

Rain. Broken clouds.


Feels Like: 86 °F
Forecast: 78 / 91 °F
Wind: 2 mph from North

Location: Bissau Aeroport

Current Time: Jun 2, 2015 at 7:55:27 AM

Latest Report: Jun 2, 2015 at 7:00 AM


Visibility: 2 mi

Pressure: 29.80 "Hg

Humidity: 84%

Dew point: 75 °F

Location of BissauLocation

Historic Weather in Bissau — Graph

°F

Bissau temperature yesterday

Maximum temperature yesterday: 93 °F (at 3:00 PM)
Minimum temperature yesterday: 77 °F (at 6:00 AM)
Average temperature yesterday: 85 °F

Past Weeks' High & Low Weather Summary

 TemperatureHumidityPressure
High99 °F (May 26, 3:00 PM)100% (May 22, 10:00 AM)30.01 "Hg (May 22, 10:00 AM)
Low75 °F (May 21, 6:00 AM)24% (May 23, 12:00 PM)29.74 "Hg (May 28, 4:00 PM)
Average85 °F67%29.87 "Hg
* Reported May 18 3:00 AM — Jun 2 3:00 AM, Bissau, Weather by CustomWeather, © 2015

Note: Actual official high and low records may vary slightly from our data, if they occured in-between our weather recording intervals... More about our weather records

Advertising

Bissau weather history for previous 24 hours

 ConditionsComfort  
Time TempWeatherWind HumidityBarometerVisibility
3:00 AM
Tue, Jun 2
79 °FClear.6 mph89%29.80 "Hg5 mi
2:00 AM81 °FClear.7 mph84%29.83 "Hg5 mi
1:00 AM81 °FClear.6 mph84%29.86 "Hg5 mi
7:00 PM
Mon, Jun 1
88 °FPassing clouds.10 mph62%29.77 "HgN/A
6:00 PM90 °FPassing clouds.12 mph52%29.77 "HgN/A
5:00 PM91 °FPassing clouds.10 mph52%29.77 "HgN/A
4:00 PM93 °FPassing clouds.10 mph47%29.80 "HgN/A
3:00 PM93 °FPassing clouds.16 mph49%29.80 "HgN/A
2:00 PM91 °FPassing clouds.16 mph52%29.83 "HgN/A
1:00 PM91 °FSunny.15 mph52%29.89 "Hg10 mi
12:00 PM90 °FPassing clouds.14 mph59%29.89 "HgN/A
11:00 AM86 °FPassing clouds.12 mph66%29.89 "HgN/A
10:00 AM84 °FScattered clouds.8 mph74%29.89 "HgN/A
9:00 AM81 °FScattered clouds.5 mph89%29.89 "Hg5 mi
8:00 AM79 °FClear.3 mph89%29.86 "Hg4 mi
7:00 AM79 °FClear.2 mph89%29.86 "Hg5 mi
Weather by CustomWeather, © 2015

See weather overviewHow to use our weather pages